DW4736 Weather Reports


Display with metric or nautical units.
time (UTC)temp
F
wind
direction
speed
MPH
gust
MPH
rain 1hr
in
rain 24hr
in
rain mn
in
humidity
%
barometer
mb
20260504205258 58 51 0.0 0.0 0.00 0.00 0.00 86 1012.5
20260504204757 58 51 0.0 0.0 0.00 0.00 0.00 86 1012.6
20260504204301 58 51 0.0 0.0 0.00 0.00 0.00 86 1012.6
20260504203759 58 51 0.0 0.0 0.00 0.00 0.00 86 1012.6
20260504203255 59 51 0.0 0.0 0.00 0.00 0.00 86 1012.6
20260504202753 59 51 0.0 0.0 0.00 0.00 0.00 86 1012.7
20260504202255 59 51 0.0 0.0 0.00 0.00 0.00 85 1012.6
20260504202229 59 51 0.0 0.0 0.00 0.00 0.00 85 1012.5
20260504201258 59 51 0.0 0.0 0.00 0.00 0.00 85 1012.5
20260504200753 60 51 0.0 0.0 0.00 0.00 0.00 84 1012.5
20260504200252 60 51 0.0 0.0 0.00 0.00 0.00 84 1012.6
20260504195745 60 51 0.0 0.0 0.00 0.00 0.00 83 1012.5
20260504195251 60 51 0.0 0.0 0.00 0.00 0.00 83 1012.4
20260504194745 60 51 0.0 0.0 0.00 0.00 0.00 83 1012.3
20260504194245 61 51 0.0 0.0 0.00 0.00 0.00 82 1012.3
20260504193743 61 51 0.0 0.0 0.00 0.00 0.00 82 1012.3
20260504193242 61 51 0.0 0.0 0.00 0.00 0.00 81 1012.4
20260504192744 62 51 0.0 0.0 0.00 0.00 0.00 81 1012.3
20260504192243 62 51 0.0 0.0 0.00 0.00 0.00 80 1012.2
20260504191745 62 51 0.0 0.0 0.00 0.00 0.00 80 1012.3
20260504191244 62 51 0.0 0.0 0.00 0.00 0.00 80 1012.3
20260504191237 62 51 0.0 0.0 0.00 0.00 0.00 79 1012.4
20260504190244 63 51 0.0 0.0 0.00 0.00 0.00 78 1012.3
20260504185737 63 51 0.0 0.0 0.00 0.00 0.00 77 1012.3
20260504185659 63 51 0.0 0.0 0.00 0.00 0.00 77 1012.3
20260504184941 63 51 0.0 0.0 0.00 0.00 0.00 77 1012.2
20260504183732 64 51 0.0 0.0 0.00 0.00 0.00 75 1012.1
20260504183656 64 51 0.0 0.0 0.00 0.00 0.00 75 1012.1
20260504182739 64 51 0.0 0.0 0.00 0.00 0.00 74 1012.1
20260504182230 65 51 0.0 0.0 0.00 0.00 0.00 73 1012.0
20260504181729 65 51 0.0 0.0 0.00 0.00 0.00 73 1012.0
20260504181232 66 51 0.0 0.0 0.00 0.00 0.00 72 1012.1
20260504180739 66 51 0.0 0.0 0.00 0.00 0.00 71 1012.1
20260504180231 66 51 0.0 0.0 0.00 0.00 0.00 69 1012.0
20260504175232 68 51 0.0 0.0 0.00 0.00 0.00 67 1012.0
20260504174731 69 51 0.0 0.0 0.00 0.00 0.00 64 1012.1
20260504174231 69 51 0.0 0.0 0.00 0.00 0.00 60 1011.9
20260504173728 70 51 0.0 0.0 0.00 0.00 0.00 57 1011.9
20260504173254 70 51 0.0 0.0 0.00 0.00 0.00 55 1012.0
20260504173246 71 51 0.0 0.0 0.00 0.00 0.00 57 1012.0
20260504173229 70 51 0.0 0.0 0.00 0.00 0.00 55 1011.9
20260504171722 71 51 0.0 0.0 0.00 0.00 0.00 55 1011.9
20260504171225 71 51 0.0 0.0 0.00 0.00 0.00 55 1011.9
20260504170734 71 51 0.0 0.0 0.00 0.00 0.00 54 1011.9
20260504170225 71 51 0.0 0.0 0.00 0.00 0.00 54 1011.9
20260504160215 73 337 0.0 0.0 0.00 0.00 0.00 52 1012.1
20260504150710 74 324 0.0 0.0 0.00 0.00 0.00 51 1012.1
20260504150211 75 75 0.0 0.0 0.00 0.00 0.00 52 1012.1
20260504140705 75 102 0.0 0.0 0.00 0.00 0.00 51 1012.3
20260504140203 75 355 0.0 0.0 0.00 0.00 0.00 52 1012.3
20260504130708 76 69 0.0 0.0 0.00 0.00 0.00 45 1012.4
20260504130204 76 69 0.0 0.0 0.00 0.00 0.00 44 1012.4
20260504120235 76 93 0.0 0.0 0.00 0.00 0.00 47 1012.6
20260504120209 76 93 0.0 0.0 0.00 0.00 0.00 47 1012.6
20260504110707 75 106 0.0 0.0 0.00 0.00 0.00 46 1013.2
20260504110205 75 106 0.0 0.0 0.00 0.00 0.00 46 1013.3
20260504100213 74 103 0.0 0.0 0.00 0.00 0.00 49 1014.0
20260504100203 74 103 0.0 0.0 0.00 0.00 0.00 48 1014.1
20260504081657 70 103 0.0 0.0 0.00 0.00 0.00 53 1014.6
20260504081201 69 103 0.0 0.0 0.00 0.00 0.00 57 1014.6
20260504080657 69 103 0.0 0.0 0.00 0.00 0.00 53 1014.6
20260504080157 69 103 0.0 0.0 0.00 0.00 0.00 55 1014.5
20260504060147 58 103 0.0 0.0 0.00 0.00 0.00 84 1014.5
20260504050624 56 103 0.0 0.0 0.00 0.00 0.00 85 1014.0
20260504050125 56 103 0.0 0.0 0.00 0.00 0.00 85 1014.1
20260504045623 56 103 0.0 0.0 0.00 0.00 0.00 85 1013.9
20260504045125 56 103 0.0 0.0 0.00 0.00 0.00 85 1013.7
20260504044655 56 103 0.0 0.0 0.00 0.00 0.00 85 1013.7
20260504044633 56 103 0.0 0.0 0.00 0.00 0.00 84 1014.0
20260504043623 56 103 0.0 0.0 0.00 0.00 0.00 85 1013.7
20260504043130 56 103 0.0 0.0 0.00 0.00 0.00 85 1013.5
20260504042621 56 103 0.0 0.0 0.00 0.00 0.00 85 1013.4
20260504042117 55 103 0.0 0.0 0.00 0.00 0.00 85 1013.5
20260504041617 55 103 0.0 0.0 0.00 0.00 0.00 85 1013.5
20260504041115 55 103 0.0 0.0 0.00 0.00 0.00 85 1013.5
20260504040614 56 103 0.0 0.0 0.00 0.00 0.00 84 1013.5
20260504040119 56 103 0.0 0.0 0.00 0.00 0.00 83 1013.6
20260504035612 56 103 0.0 0.0 0.00 0.00 0.00 84 1013.4
20260504035550 56 103 0.0 0.0 0.00 0.00 0.00 83 1013.6
20260504034615 56 103 0.0 0.0 0.00 0.00 0.00 83 1013.3
20260504034111 56 103 0.0 0.0 0.00 0.00 0.00 84 1013.6
20260504033610 55 103 0.0 0.0 0.00 0.00 0.00 84 1013.5
20260504033114 55 103 0.0 0.0 0.00 0.00 0.00 84 1013.0
20260504032805 55 103 0.0 0.0 0.00 0.00 0.00 84 1012.9
20260504031609 55 103 0.0 0.0 0.00 0.00 0.00 85 1013.7
20260504031108 55 103 0.0 0.0 0.00 0.00 0.00 85 1013.7
20260504030609 55 103 0.0 0.0 0.00 0.00 0.00 85 1013.7
20260504030111 55 103 0.0 0.0 0.00 0.00 0.00 85 1013.6
20260504025609 55 103 0.0 0.0 0.00 0.00 0.00 86 1013.6
20260504025105 55 103 0.0 0.0 0.00 0.00 0.00 86 1013.6
20260504024611 54 103 0.0 0.0 0.00 0.00 0.00 86 1013.6
20260504024104 55 103 0.0 0.0 0.00 0.00 0.00 86 1013.8
20260504023605 55 103 0.0 0.0 0.00 0.00 0.00 86 1013.8
20260504023108 54 103 0.0 0.0 0.00 0.00 0.00 86 1013.8
20260504022605 54 103 0.0 0.0 0.00 0.00 0.00 85 1013.6
20260504022107 55 103 0.0 0.0 0.00 0.00 0.00 85 1013.7
20260504021602 55 103 0.0 0.0 0.00 0.00 0.00 85 1013.7
20260504021114 55 103 0.0 0.0 0.00 0.00 0.00 85 1013.7
20260504020604 55 103 0.0 0.0 0.00 0.00 0.00 85 1013.6
20260504020117 55 103 0.0 0.0 0.00 0.00 0.00 84 1013.7
20260504015602 55 103 0.0 0.0 0.00 0.00 0.00 84 1013.7
20260504015103 55 103 0.0 0.0 0.00 0.00 0.00 84 1013.6
20260504014602 55 103 0.0 0.0 0.00 0.00 0.00 84 1013.7
20260504014102 55 103 0.0 0.0 0.00 0.00 0.00 84 1013.7
20260504014047 55 103 0.0 0.0 0.00 0.00 0.00 84 1013.7
20260504013102 54 103 0.0 0.0 0.00 0.00 0.00 84 1013.4
20260504012602 54 103 0.0 0.0 0.00 0.00 0.00 84 1013.4
20260504012104 54 103 0.0 0.0 0.00 0.00 0.00 84 1013.5
20260504012025 54 103 0.0 0.0 0.00 0.00 0.00 84 1013.5
20260504011101 54 103 0.0 0.0 0.00 0.00 0.00 85 1013.5
20260504010602 54 103 0.0 0.0 0.00 0.00 0.00 85 1013.4
20260504010143 54 103 0.0 0.0 0.00 0.00 0.00 85 1013.5
20260504010110 54 103 0.0 0.0 0.00 0.00 0.00 85 1013.4
20260504005103 53 103 0.0 0.0 0.00 0.00 0.00 85 1013.5
20260504004601 54 103 0.0 0.0 0.00 0.00 0.00 85 1013.4
20260504004101 54 103 0.0 0.0 0.00 0.00 0.00 85 1013.4
20260504003603 54 103 0.0 0.0 0.00 0.00 0.00 84 1013.4
20260504003105 54 103 0.0 0.0 0.00 0.00 0.00 84 1013.4
20260504002608 54 103 0.0 0.0 0.00 0.00 0.00 84 1013.4
20260504002108 54 103 0.0 0.0 0.00 0.00 0.00 84 1013.3
20260504001558 54 103 0.0 0.0 0.00 0.00 0.00 83 1013.2
20260504001058 54 103 0.0 0.0 0.00 0.00 0.00 83 1013.2
20260504001038 54 103 0.0 0.0 0.00 0.00 0.00 82 1013.0
20260504000108 55 103 0.0 0.0 0.00 0.00 0.00 82 1013.0
20260503235559 55 103 0.0 0.0 0.00 0.00 0.00 82 1012.9
20260503235057 55 103 0.0 0.0 0.00 0.00 0.00 81 1012.9
20260503234600 55 103 0.0 0.0 0.00 0.00 0.00 80 1012.9
20260503234555 55 103 0.0 0.0 0.00 0.00 0.00 81 1012.9
20260503233558 55 103 0.0 0.0 0.00 0.00 0.00 80 1012.9
20260503233534 56 103 0.0 0.0 0.00 0.00 0.00 79 1012.8
20260503232554 56 103 0.0 0.0 0.00 0.00 0.00 79 1013.0
20260503232054 56 103 0.0 0.0 0.00 0.00 0.00 79 1013.0
20260503231555 56 103 0.0 0.0 0.00 0.00 0.00 79 1012.9
20260503231056 57 103 0.0 0.0 0.00 0.00 0.00 78 1012.7
20260503230552 57 103 0.0 0.0 0.00 0.00 0.00 78 1012.9
20260503230100 57 103 0.0 0.0 0.00 0.00 0.00 77 1012.5
20260503225551 57 103 0.0 0.0 0.00 0.00 0.00 77 1012.5
20260503225537 57 103 0.0 0.0 0.00 0.00 0.00 77 1012.6
20260503224552 57 103 0.0 0.0 0.00 0.00 0.00 76 1012.5
20260503224048 58 103 0.0 0.0 0.00 0.00 0.00 75 1012.6
20260503223550 58 103 0.0 0.0 0.00 0.00 0.00 74 1012.4
20260503223534 58 103 0.0 0.0 0.00 0.00 0.00 75 1012.5
20260503222548 58 103 0.0 0.0 0.00 0.00 0.00 75 1012.5
20260503222534 58 103 0.0 0.0 0.00 0.00 0.00 75 1012.3
20260503221547 58 103 0.0 0.0 0.00 0.00 0.00 75 1012.4
20260503221045 59 103 0.0 0.0 0.00 0.00 0.00 74 1012.3
20260503220545 58 103 0.0 0.0 0.00 0.00 0.00 75 1012.3
20260503220058 59 103 0.0 0.0 0.00 0.00 0.00 74 1012.0
20260503215545 59 103 0.0 0.0 0.00 0.00 0.00 74 1011.9
20260503215041 59 103 0.0 0.0 0.00 0.00 0.00 75 1011.7
20260503214538 59 103 0.0 0.0 0.00 0.00 0.00 74 1011.6
20260503214040 59 103 0.0 0.0 0.00 0.00 0.00 75 1011.6
20260503213538 59 103 0.0 0.0 0.00 0.00 0.00 75 1011.5
20260503213523 59 103 0.0 0.0 0.00 0.00 0.00 75 1011.6
20260503212535 59 103 0.0 0.0 0.00 0.00 0.00 75 1011.6
20260503212035 58 103 0.0 0.0 0.00 0.00 0.00 75 1011.6
20260503211537 58 103 0.0 0.0 0.00 0.00 0.00 75 1011.6
20260503211035 58 103 0.0 0.0 0.00 0.00 0.00 75 1011.6
20260503210533 58 103 0.0 0.0 0.00 0.00 0.00 75 1011.6